#timestamp,LO_Frequency,Hit,StdDev 
1604545215.7,286046998.5,N
1604545235.5,286047000.7,N
1604545255.4,286047001.0,N
1604545275.2,286046999.9,N
1604545295.0,286047002.3,N
1604545295.9,286047002.3,N
1604545315.8,286047003.9,N
1604545365.7,286047004.0,E
1604545375.6,286047000.6,N
1604545395.4,286046997.0,P
1604545415.2,286046999.1,N
1604545435.1,286046997.2,N
1604545436.0,286046997.2,N
1604545455.8,286046997.3,N
1604545475.7,286046997.8,N
1604545495.5,286046997.1,N
1604545515.3,286046995.3,Y
1604545535.2,286047001.1,P
1604545555.0,286047001.1,N
1604545555.9,286047001.1,N
1604545575.8,286047001.0,N
1604545595.6,286047000.6,N
1604545615.4,286047000.7,N
1604545635.3,286047000.6,N
1604545655.1,286047002.8,N
1604545675.9,286047000.1,N
1604545695.7,286047001.0,N
1604545715.5,286047001.1,N
1604545735.4,286047001.0,N
1604545755.2,286046998.1,N
1604545775.0,286046998.5,N
1604545775.9,286046998.5,N
1604545795.8,286046999.9,N
1604545815.6,286047000.4,N
1604545835.5,286047002.7,N
1604545855.3,286047002.1,N
1604545875.1,286047002.4,N
1604545895.9,286047002.4,N
1604545915.7,286047004.4,Y
1604545935.5,286047002.7,P
1604545955.4,286047002.7,N
1604545975.2,286047001.0,N
1604545995.1,286047001.0,N
1604545996.0,286047001.0,N
1604546015.8,286046999.7,N
1604546035.6,286047000.6,N
1604546055.5,286047002.8,N
1604546075.3,286047002.0,N
1604546095.1,286047002.3,N
1604546115.9,286046999.8,N
1604546135.7,286046999.8,N
1604546155.6,286047000.1,N
1604546175.4,286047000.5,N
1604546195.2,286047002.4,N
1604546215.1,286047000.3,N
1604546216.0,286047000.3,N
1604546235.8,286047001.2,N
1604546255.6,286047001.1,N
1604546275.5,286047000.1,N
1604546295.3,286047002.1,N
1604546315.2,286047001.5,N
1604546335.9,286047001.7,N
1604546355.7,286047001.3,N
1604546375.6,286047004.1,Y
1604546395.4,286047001.8,P
1604546415.2,286047002.3,P
1604546435.1,286046999.7,N
1604546436.0,286046999.7,N
1604546455.8,286047002.2,N
1604546475.7,286047000.0,N
1604546495.5,286047000.1,N
1604546515.3,286047002.5,N
1604546535.2,286047002.7,N
1604546555.0,286047000.1,N
1604546555.9,286047000.1,N
1604546575.8,286047000.2,N
1604546595.6,286047002.2,N
1604546615.4,286047002.0,N
1604546635.3,286047001.5,N
1604546655.1,286047002.1,N
1604546675.8,286047002.7,N
1604546695.7,286047002.7,N
1604546715.5,286047002.2,N
1604546735.4,286047004.0,Y
1604546755.2,286047002.3,P
1604546775.0,286047002.8,P
1604546775.9,286047002.8,P
1604546795.8,286047000.3,N
1604546815.6,286047000.9,N
1604546835.4,286047000.9,N
1604546855.3,286047000.4,N
1604546875.1,286047000.2,N
1604546895.9,286047000.6,N
1604546915.7,286046998.6,N
1604546935.5,286047001.0,N
1604546955.4,286046998.1,N
1604546975.2,286047011.9,Y
1604546995.0,286046998.4,P
1604546996.0,286046998.4,N
1604547015.8,286046998.5,N
1604547035.6,286047001.1,N
1604547055.5,286047001.1,N
1604547075.3,286046999.7,N
1604547095.1,286047002.4,N
1604547115.9,286047000.0,N
1604547135.7,286047001.2,N
1604547155.6,286046998.1,N
1604547175.4,286047001.2,N
1604547195.2,286047000.3,N
1604547215.1,286047000.7,N
1604547216.0,286047000.7,N
1604547235.8,286046999.7,N
1604547255.6,286047000.6,N
1604547275.5,286047002.8,N
1604547295.3,286047002.5,N
1604547315.2,286047002.2,N
1604547335.9,286047004.1,N
1604547355.7,286047004.1,N
1604547375.6,286047005.8,Y
1604547395.4,286047004.3,P
1604547415.2,286047002.2,N
1604547435.1,286047002.7,N
1604547436.0,286047002.7,N
1604547455.8,286047002.6,N
1604547475.7,286047001.3,N
1604547495.5,286047003.4,Y
1604547515.3,286047001.6,P
1604547535.2,286047003.7,P
1604547555.0,286047004.3,P
1604547555.9,286047004.3,Y
1604547575.8,286046999.4,P
1604547595.6,286046996.5,N
1604547615.4,286046999.5,N
1604547635.3,286046999.5,N
1604547655.1,286046999.5,N
1604547675.8,286046999.5,N
1604547695.7,286046998.9,N
1604547715.5,286046996.8,N
1604547735.4,286046997.6,N
1604547755.2,286046996.9,N
1604547775.0,286046998.4,N
1604547775.9,286046998.4,N
1604547795.8,286046998.8,N
1604547815.6,286046998.7,N
1604547835.4,286047001.2,N
1604547855.3,286046998.1,N
1604547875.1,286046996.6,N
1604547895.9,286046997.1,N
1604547915.7,286046997.5,N
1604547935.5,286046995.5,N
1604547955.4,286046998.0,N
1604547975.2,286046997.6,N
1604547995.0,286046995.3,N
1604547995.9,286046995.3,N
1604548015.8,286046995.3,N
1604548035.6,286046996.0,N
1604548055.5,286046993.9,Y
1604548075.3,286046997.7,P
1604548095.1,286046997.4,P
1604548115.9,286046995.5,P
1604548135.7,286046997.9,N
1604548155.6,286046995.7,Y
1604548175.4,286046998.3,P
1604548195.2,286046998.7,N
1604548215.1,286046998.7,N
1604548216.0,286046998.7,N
1604548235.8,286046998.9,N
1604548255.6,286046998.4,Y
1604548275.5,286047002.3,P
1604548295.3,286047002.2,N
1604548315.2,286047000.0,N
1604548335.9,286047002.4,N
1604548355.7,286047002.1,N
1604548375.6,286047002.7,N
1604548395.4,286047002.3,N
1604548415.2,286047002.0,N
1604548435.1,286047001.8,N
1604548436.0,286047001.8,N
1604548455.8,286047000.9,N
1604548475.7,286047002.0,N
1604548495.5,286047001.6,N
1604548515.3,286047001.6,N
1604548535.2,286047002.0,N
1604548555.0,286047002.6,N
1604548555.9,286047002.6,N
1604548575.8,286047002.6,N
1604548595.6,286047001.9,N
1604548615.4,286047001.4,N
1604548635.3,286047004.2,Y
1604548655.1,286047001.0,P
1604548675.8,286046999.2,N
1604548695.7,286046998.6,N
1604548715.5,286046998.9,N
1604548735.4,286046999.6,N
1604548755.2,286046996.8,N
1604548775.0,286046997.2,N
1604548775.9,286046997.2,N
1604548795.8,286046997.7,N
